RH
11 11 10 10 9 8 8 8 8 8 8 8 7 8 9 12 13 13 14 14 14 15 16 16 16 15 14 13 11 10 9 9 9 8 8 8 8 8 9 10 11 11 9 10 10 9 10 10 9 10 13 15 13 14 13 14 15 13 14 14 14 13 13 14 15 18 20 19 17 15 15 16 20 22 24 29 31 33 39 41 42 43 41 42 43 47 50 53
12 11 11 10 10 9 8 8 8 8 8 8 8 7 8 9 11 12 13 14 14 14 15 17 17 16 14 14 13 12 10 9 9 8 8 8 8 8 9 10 11 11 10 10 10 10 12 11 9 11 14 14 13 13 13 14 13 13 14 14 14 11 12 15 17 20 21 19 19 17 17 16 19 26 28 31 35 37 42 46 46 48 50 50 51 52 53 56
12 11 11 10 10 9 9 8 8 8 8 8 8 8 8 7 8 10 11 13 14 14 14 15 17 16 15 15 13 13 11 10 10 11 11 10 9 9 9 10 11 12 11 10 10 10 12 12 10 12 14 14 14 14 14 14 13 13 13 14 13 10 12 17 18 20 20 19 19 18 18 18 18 23 26 30 38 40 44 50 49 51 55 57 56 54 54 58
11 11 11 10 10 9 10 9 9 8 8 8 8 8 8 7 7 8 9 11 13 14 14 14 15 16 16 15 15 14 11 13 16 15 15 12 11 11 10 10 11 12 11 11 10 11 13 14 12 13 14 14 15 15 15 14 13 13 12 13 12 10 14 18 20 20 20 20 20 19 17 19 18 20 23 30 39 39 40 45 47 52 58 60 59 55 55 58
11 10 10 10 9 9 9 9 9 9 8 8 9 9 8 8 7 7 7 8 11 13 13 13 14 15 16 15 16 14 13 19 23 21 20 18 16 14 12 12 12 12 12 11 11 13 15 14 15 17 17 17 18 17 16 14 13 13 12 13 11 11 16 19 21 21 21 20 21 20 18 19 18 20 23 27 34 36 36 40 44 52 59 62 61 57 56 58
11 10 10 9 9 9 9 9 9 9 9 9 9 9 9 9 7 7 6 6 8 11 13 13 13 14 15 16 16 14 17 21 22 23 23 23 21 18 16 14 13 12 12 12 12 14 15 14 17 23 22 20 20 18 16 14 13 13 12 13 12 12 17 20 19 20 20 21 22 20 19 19 18 19 20 20 25 30 32 37 43 49 57 62 62 60 59 59
11 10 10 9 9 9 8 8 8 8 9 9 9 9 9 9 9 7 6 6 7 8 11 12 13 14 15 16 15 16 21 20 18 21 23 23 22 20 18 16 15 14 13 13 13 14 15 14 18 24 24 21 20 18 16 15 15 14 12 13 13 12 17 21 18 18 18 19 21 20 19 20 18 18 18 19 23 28 31 34 40 47 55 60 60 61 62 59
11 10 10 10 9 9 9 8 8 8 8 9 9 8 9 9 9 9 7 7 6 7 8 10 12 13 14 15 15 19 22 20 20 24 23 23 23 22 20 17 15 15 14 14 15 15 16 16 18 22 22 21 19 17 16 15 15 15 14 13 13 12 16 21 19 18 17 15 17 18 18 19 19 17 18 23 24 26 29 32 39 47 54 56 55 60 61 55
10 10 10 10 10 10 10 9 9 9 9 8 8 9 9 9 10 9 8 7 6 6 6 9 11 11 13 13 16 22 22 20 24 26 25 23 24 24 23 19 17 15 15 17 17 16 16 17 19 20 20 19 18 17 16 15 15 15 15 14 14 12 15 20 19 18 19 17 15 15 17 17 19 17 17 25 25 25 28 31 38 46 52 53 51 56 56 51
11 10 10 10 10 10 10 10 10 10 9 9 9 9 8 9 10 9 9 8 8 7 6 8 9 10 12 12 18 26 21 21 26 28 27 25 24 23 23 22 19 16 16 18 18 17 17 17 18 18 17 17 17 17 16 15 15 15 15 14 15 14 14 17 19 20 21 21 16 14 15 15 16 14 15 22 22 23 30 32 35 42 49 52 50 52 52 49
12 12 11 10 10 10 10 10 10 10 11 10 10 10 9 9 10 10 9 9 8 7 7 7 8 10 10 11 20 23 18 21 25 27 29 28 25 22 22 23 21 19 18 18 18 17 17 18 17 16 16 16 16 16 15 14 14 15 15 14 14 15 15 16 18 19 19 19 16 14 14 13 12 11 12 18 20 22 28 32 35 39 45 49 50 49 47 45
13 13 12 12 11 10 10 10 10 10 10 11 11 10 10 10 10 11 11 10 10 10 9 7 8 9 9 12 16 15 14 19 22 24 27 29 27 23 22 24 22 21 20 20 19 17 17 18 17 16 16 16 17 17 15 14 14 15 15 15 15 15 15 16 16 17 17 16 15 14 14 12 11 10 9 13 20 26 29 30 33 35 39 44 48 48 47 45
12 12 12 12 12 12 11 10 10 10 9 10 10 10 11 10 10 11 12 13 12 12 11 10 9 8 11 16 12 8 12 16 19 21 23 27 27 24 23 23 23 22 22 22 21 19 19 18 18 17 16 17 18 17 16 16 16 15 16 15 16 16 16 16 16 15 16 15 14 14 14 12 11 10 9 10 17 26 30 29 29 30 32 37 41 45 47 46
12 12 12 11 12 12 12 11 11 10 10 9 9 10 10 10 10 11 12 13 13 13 13 12 11 9 14 16 10 9 13 14 17 19 21 24 24 23 23 22 22 22 22 23 22 21 21 19 18 17 16 17 17 17 18 18 17 17 16 16 17 17 16 16 16 15 15 15 14 14 14 13 11 10 10 10 13 22 28 26 26 27 29 33 36 41 45 45
13 12 12 12 11 11 11 11 11 12 11 11 10 9 9 10 10 10 11 12 12 13 13 14 15 13 18 19 12 13 14 13 16 18 19 22 22 22 22 21 21 22 22 22 23 23 22 21 20 18 17 17 16 17 19 19 19 19 18 16 16 17 16 16 15 15 15 14 14 14 15 14 12 10 10 10 11 18 24 24 24 26 27 30 34 38 42 45
13 13 12 12 11 11 11 10 11 11 11 11 11 10 10 8 9 9 10 10 11 13 14 18 20 20 24 23 17 17 16 16 17 18 19 21 22 24 26 24 22 22 22 22 24 24 23 22 20 18 17 17 17 18 19 20 21 21 19 18 17 16 16 15 13 13 14 14 14 13 15 14 12 10 10 11 12 16 22 21 21 24 25 28 33 36 40 50
13 13 13 12 12 11 11 10 10 10 10 11 11 11 11 10 9 9 9 10 11 13 15 20 25 27 25 20 19 20 19 20 21 21 21 20 22 27 32 33 28 24 23 23 23 23 24 23 21 19 17 17 18 18 20 21 23 22 20 18 16 15 15 14 12 11 12 14 14 13 14 13 12 12 12 13 14 18 21 20 21 23 25 27 29 34 44 58
13 13 13 12 12 11 11 11 10 10 10 10 10 10 11 11 10 9 11 14 16 19 22 23 26 30 27 22 22 22 20 23 25 24 23 22 22 27 35 36 32 29 26 25 23 22 23 22 20 20 19 17 17 18 20 20 20 20 21 19 17 16 15 14 11 11 12 13 14 15 15 13 12 13 13 14 16 19 21 21 22 23 27 28 27 36 50 59
14 13 13 12 12 11 11 11 10 10 10 10 10 10 10 11 12 18 23 23 26 30 31 29 28 27 27 26 25 24 23 24 27 27 25 23 23 28 35 34 33 31 27 26 24 21 22 22 22 21 21 20 17 17 18 17 15 17 20 21 21 20 17 15 11 11 13 14 15 17 17 15 14 14 14 16 19 22 23 22 24 27 29 30 34 44 51 55
15 14 14 13 12 11 11 11 10 10 10 10 10 10 11 13 18 28 32 27 26 28 28 30 29 22 22 26 26 26 27 25 26 27 24 24 25 30 35 34 31 29 27 27 25 23 22 23 24 22 21 20 18 17 17 16 16 18 21 21 23 25 22 17 13 12 14 16 15 16 18 17 16 16 17 19 21 25 25 23 28 32 32 36 43 49 49 53
16 15 14 13 12 11 11 10 10 10 9 9 10 10 10 13 16 22 25 21 19 19 21 25 27 23 21 24 26 26 29 27 27 28 25 25 28 31 33 33 31 29 27 25 25 25 23 24 24 22 21 19 19 20 20 20 19 22 23 21 23 29 27 20 17 16 16 17 17 17 18 18 17 17 17 18 21 26 26 25 31 35 37 43 48 48 48 50
16 15 14 13 12 11 10 9 9 8 8 9 10 9 10 10 13 16 18 15 15 15 16 18 21 23 20 20 25 27 28 27 29 32 29 26 30 31 31 32 29 27 26 24 25 26 24 24 23 20 19 19 19 22 24 25 23 24 23 21 24 30 28 22 18 18 17 18 17 17 18 19 20 18 17 18 21 25 23 25 33 37 41 46 46 46 46 46
17 17 16 15 14 13 12 11 10 10 12 14 13 10 11 11 12 15 17 16 14 15 15 14 16 19 18 18 23 29 29 26 28 32 30 28 31 31 30 30 27 24 25 24 24 26 25 23 20 18 19 20 22 25 27 28 27 27 23 22 27 30 30 30 25 20 19 21 20 19 22 24 23 20 18 19 20 21 21 25 33 38 43 44 45 47 47 47
16 17 17 16 16 15 14 13 13 17 20 18 13 10 11 14 14 15 17 18 16 15 15 14 13 15 17 17 19 26 30 28 27 30 29 29 32 31 29 29 25 23 22 22 23 23 22 23 22 24 23 21 24 28 28 28 30 30 25 24 30 30 32 37 33 27 25 24 24 25 29 31 27 21 21 21 21 23 23 28 38 43 43 44 48 51 50 50
15 15 15 16 15 15 15 14 17 24 24 19 14 11 13 18 18 17 20 24 21 15 14 17 16 17 17 17 19 24 29 29 28 29 28 29 32 31 29 27 23 21 20 20 23 21 20 25 27 27 26 22 23 28 29 28 28 30 27 25 30 31 32 36 34 34 33 29 28 29 31 37 32 23 23 23 22 26 27 34 45 47 45 47 52 53 51 50
16 15 15 15 14 14 15 16 19 22 21 19 16 14 20 24 22 18 22 34 33 19 14 18 19 21 21 21 24 27 29 28 26 28 29 29 32 32 29 26 22 20 20 19 22 21 20 26 29 29 29 26 24 26 29 29 28 28 24 22 29 31 30 33 32 33 36 35 33 31 32 37 35 26 25 24 24 28 34 42 47 45 46 49 52 51 50 51
18 17 17 16 15 16 16 17 18 17 17 20 19 19 22 21 19 18 27 43 40 24 18 19 20 24 27 27 27 28 30 28 25 26 27 29 33 33 29 26 22 20 20 20 22 22 21 25 27 29 31 28 27 28 27 28 27 25 20 19 27 29 28 31 30 30 37 39 37 34 33 35 34 31 28 27 28 32 42 49 47 44 46 49 51 51 50 53
18 18 17 16 16 17 17 17 17 16 19 20 21 24 23 19 17 22 38 49 39 26 26 24 21 24 28 30 30 28 28 29 28 27 26 27 33 35 29 25 23 20 19 21 23 24 24 26 26 27 28 27 28 28 27 27 24 20 17 17 22 26 26 28 29 32 38 43 41 36 34 36 37 34 30 29 31 37 48 51 45 44 46 48 53 52 47 52
16 16 16 15 16 17 17 17 18 21 25 23 23 26 25 23 20 26 47 52 32 25 31 31 30 29 29 30 30 30 28 28 30 30 29 29 31 34 30 23 23 22 21 22 23 26 28 29 27 26 27 26 27 26 25 26 23 17 16 19 20 21 25 28 30 34 38 41 44 40 36 39 44 40 33 33 36 41 51 52 45 45 47 49 54 55 50 52
15 15 16 16 14 16 17 16 18 25 27 28 30 28 25 26 26 38 55 48 26 24 29 31 35 37 36 34 31 30 28 28 32 32 32 32 32 32 28 24 23 24 25 24 23 24 27 30 29 27 25 24 25 25 23 22 21 17 17 20 20 20 26 30 30 34 41 43 43 43 39 40 46 45 40 40 41 42 50 53 47 47 52 55 56 57 55 55
13 14 16 16 14 15 15 13 18 24 26 30 32 30 27 27 33 50 55 36 23 26 28 29 33 36 40 40 38 35 29 29 33 33 32 34 35 32 28 27 27 27 27 26 25 24 25 29 30 26 24 24 23 23 22 21 19 18 20 21 24 28 31 31 28 29 40 47 43 38 37 38 43 46 46 48 45 43 47 50 50 51 57 61 59 58 56 58
10 12 13 12 11 11 10 9 13 21 24 25 27 28 28 31 39 49 45 32 29 30 30 32 34 35 39 41 41 38 32 30 33 34 32 35 39 37 31 29 29 28 28 27 27 26 26 27 26 25 25 24 24 22 22 22 21 21 22 22 29 39 41 40 37 32 36 43 39 32 33 39 44 46 51 53 51 49 48 50 52 54 58 62 63 61 59 59
7 9 8 7 8 6 6 5 7 13 16 18 21 24 29 40 45 39 33 32 36 35 34 37 39 40 43 42 41 39 35 31 31 34 35 36 42 42 34 29 28 28 28 29 29 28 27 27 23 23 24 23 24 22 23 25 26 26 27 26 31 42 48 49 45 39 36 35 32 28 33 42 48 50 52 55 54 53 52 53 53 53 57 61 63 65 66 65
6 7 7 8 10 7 5 5 4 7 11 15 18 21 32 47 45 33 29 29 31 34 36 38 41 43 47 47 46 43 40 34 31 34 40 44 47 46 40 32 29 28 27 28 31 29 30 31 26 23 23 23 23 21 22 28 32 33 30 29 33 40 47 52 49 46 44 41 38 37 38 46 56 60 55 54 55 54 54 57 56 57 60 61 61 64 67 67
7 8 9 13 16 11 7 6 6 9 16 17 16 20 32 39 31 28 33 30 28 32 35 38 39 41 46 50 51 48 45 41 37 35 41 48 50 49 45 36 30 29 27 29 33 30 30 30 26 24 23 22 23 21 21 26 36 43 35 28 33 38 43 52 55 50 47 47 48 49 50 52 61 67 59 54 58 58 56 58 59 62 63 60 61 63 62 62
8 8 10 15 19 19 13 9 8 13 20 20 18 21 25 22 18 22 28 29 31 34 36 39 39 39 42 46 48 51 52 52 50 44 41 44 48 49 47 40 32 28 28 31 33 31 32 33 28 26 26 24 23 23 22 25 36 45 38 30 30 34 39 49 55 51 48 50 49 50 58 59 61 66 62 56 60 62 63 62 62 64 63 60 63 64 61 60
9 8 10 15 22 26 21 15 16 18 19 20 22 22 17 12 12 15 19 27 34 36 36 39 39 39 41 43 44 48 55 59 57 53 48 47 53 54 50 45 39 32 30 31 33 33 34 36 34 32 32 30 26 25 23 24 32 39 38 35 32 33 40 47 54 57 55 55 52 49 56 61 62 65 62 59 60 62 65 67 65 65 63 62 64 63 62 62
14 17 21 24 28 31 27 22 24 22 19 20 22 20 15 11 11 11 15 23 32 36 37 39 40 39 40 43 43 42 50 58 59 57 55 54 59 61 57 54 49 42 38 35 33 35 34 34 35 33 35 37 32 28 26 25 27 32 37 40 38 42 49 48 51 58 59 58 58 54 57 60 62 64 63 62 61 61 64 64 65 65 63 63 62 61 63 63
24 31 37 39 38 40 38 32 27 24 23 23 22 18 13 10 10 11 13 19 29 36 39 42 43 41 41 42 44 42 43 53 61 61 63 63 62 62 60 59 55 49 47 42 37 39 40 39 38 34 34 40 39 34 33 32 30 28 33 40 42 48 52 47 47 53 58 64 65 61 64 67 65 64 64 63 61 61 63 62 62 64 63 63 61 58 61 65
27 35 44 49 49 49 44 35 28 25 26 25 21 16 12 12 11 11 13 17 27 37 43 45 44 43 44 43 43 43 41 50 59 60 64 68 67 65 62 60 59 55 51 48 44 42 43 42 43 42 38 41 47 44 40 40 39 35 34 38 41 44 48 49 49 48 51 60 64 65 70 72 69 67 65 61 60 61 62 63 64 64 64 65 64 62 63 65
31 39 49 54 51 44 35 29 29 28 29 28 23 19 18 18 14 13 16 18 26 37 41 42 44 45 45 45 44 42 41 48 54 56 61 66 68 71 68 63 61 57 55 56 54 51 48 44 45 47 44 44 50 48 44 43 43 42 42 42 43 45 48 54 57 53 50 54 57 63 72 73 69 71 71 65 61 59 61 64 66 64 64 65 65 63 64 65
38 45 51 52 46 37 30 32 37 40 43 44 38 31 29 29 25 20 19 18 25 40 46 44 46 45 43 46 46 42 43 48 53 58 62 63 65 66 66 65 62 59 61 64 60 56 55 50 44 43 45 47 49 46 45 45 41 41 45 46 46 48 49 53 60 60 57 56 57 61 72 77 72 74 79 75 66 62 64 66 66 65 65 66 65 63 62 65
38 44 48 50 46 39 38 44 47 48 52 51 48 46 41 38 36 29 25 27 29 38 47 50 49 46 45 48 47 44 45 47 49 56 59 60 62 59 58 63 63 59 62 66 64 59 57 56 52 47 46 49 50 49 49 48 45 46 49 47 48 52 49 46 51 54 54 59 64 66 71 76 74 75 79 79 75 70 69 70 70 70 69 69 71 69 67 67
37 41 44 50 50 45 45 53 58 58 58 53 51 53 51 48 46 38 34 37 35 32 39 45 47 49 49 48 47 45 45 47 48 51 55 56 59 58 58 61 61 60 62 65 67 64 62 63 63 61 60 58 56 55 56 55 53 56 56 51 50 54 54 52 51 50 52 57 61 66 72 75 75 77 78 77 79 76 71 69 69 70 71 70 70 72 75 74
40 42 42 46 46 41 44 53 58 62 63 60 55 54 55 56 55 50 44 40 34 31 34 38 41 47 50 50 49 45 44 48 48 49 52 54 55 57 59 59 57 59 61 62 66 68 69 69 66 66 71 71 64 62 64 62 58 59 60 55 53 52 54 59 59 54 55 57 56 62 74 79 76 78 81 80 81 80 75 72 69 70 74 73 69 70 76 77
41 40 38 40 37 34 42 48 51 54 57 59 60 57 58 60 57 54 52 47 40 35 33 34 37 42 46 49 49 46 46 48 48 49 54 56 55 56 59 59 58 60 63 64 65 68 71 73 68 66 69 69 65 63 62 60 59 63 64 61 59 57 56 61 65 64 62 64 66 66 69 78 80 79 81 82 81 81 80 79 77 77 80 81 78 78 78 77
41 40 35 36 38 40 46 49 51 55 54 55 61 60 59 62 63 61 60 57 53 45 37 37 39 43 49 50 49 48 48 48 51 57 60 57 55 56 58 60 62 64 65 65 66 70 75 76 74 71 68 64 62 61 59 57 60 65 67 66 65 63 62 64 69 71 66 68 80 80 71 76 82 79 79 83 84 82 81 82 83 83 84 84 82 82 82 79
38 37 34 38 47 49 51 53 56 61 60 57 62 65 61 60 63 67 69 67 62 54 48 46 45 50 57 55 52 53 52 52 58 63 61 57 59 60 59 60 65 68 67 66 68 72 75 77 76 74 70 65 62 60 57 58 62 64 67 69 68 67 69 70 71 73 68 69 82 85 78 79 84 82 81 83 84 83 82 83 83 83 83 83 80 80 81 79
29 32 36 45 53 54 54 59 61 64 64 57 56 64 66 60 59 64 69 75 72 62 58 58 54 55 58 54 50 51 53 58 65 66 63 62 64 65 64 63 66 71 71 73 75 73 72 77 79 76 73 67 61 59 57 59 63 64 64 68 70 71 74 75 73 72 71 74 81 82 81 85 86 83 81 80 79 80 81 82 82 82 83 84 82 80 78 75
25 31 40 48 52 52 56 62 62 64 68 60 53 64 71 65 62 62 64 73 79 71 64 64 62 59 58 54 53 55 57 61 65 63 61 62 64 65 65 63 65 72 73 76 80 76 72 77 79 78 77 72 63 59 60 62 65 65 66 67 68 71 75 78 77 74 75 82 86 82 81 85 84 82 82 80 78 78 79 80 80 81 81 80 80 79 76 74
27 34 41 47 49 47 50 57 56 61 72 68 58 64 74 72 67 67 66 67 73 71 65 65 67 64 59 55 55 58 59 59 59 57 55 56 57 56 57 58 62 69 73 75 78 78 77 81 82 79 80 78 71 67 65 63 63 66 69 70 68 69 73 75 77 78 80 85 87 85 85 87 84 81 82 83 81 79 77 76 77 78 76 75 77 77 76 75
29 35 38 44 48 42 42 49 51 57 71 75 65 58 64 68 65 66 69 66 62 62 61 63 68 66 61 58 57 57 57 56 54 54 55 56 52 48 47 48 52 61 69 73 74 76 80 84 85 81 80 78 77 78 74 70 71 74 74 72 70 69 69 69 72 75 78 81 84 87 89 90 86 83 83 84 84 82 80 76 76 77 74 73 75 76 76 75